Regional Weather Roundup
Issued by NWS Green Bay, WI

Home | Current Version | Previous Version | Text Only | Print | Product List | Glossary On
Versions: 1 2 3 4 5 6 7 8 9 10 11 12 13 14 15 16 17 18 19 20 21 22 23 24 25 26 27 28 29 30 31 32 33 34 35 36 37 38 39 40 41 42 43 44 45 46 47 48 49 50
437
ASUS43 KGRB 100300
RWRGRB

NORTH-CENTRAL AND NORTHEAST WISCONSIN REGIONAL WEATHER ROUNDUP
NATIONAL WEATHER SERVICE GREEN BAY WI
900 PM CST TUE FEB 09 2016

WIZ005-009-010>012-018-019-100400-
NORTH CENTRAL WISCONSIN

CITY           SKY/WX    TMP DP  RH WIND       PRES   REMARKS
IRONWOOD       CLOUDY     9   5  85 N12       29.97S WCI  -6
MANITOWISH WTR NOT AVBL
ARBOR VITAE    NOT AVBL
EAGLE RIVER    NOT AVBL
LAND O LAKES   NOT AVBL
RHINELANDER    CLOUDY     9   1  70 NW9       29.91R WCI  -4
PHILLIPS       NOT AVBL
ANTIGO         NOT AVBL
TOMAHAWK       NOT AVBL
MERRILL        NOT AVBL
$$

WIZ013-073-100400-
NORTHEAST WISCONSIN

CITY           SKY/WX    TMP DP  RH WIND       PRES   REMARKS
IRON MOUNTAIN  CLOUDY    10   1  67 NW16      29.87F BLWGSNOWWCI  -7
MARINETTE      CLOUDY    12   3  67 NW14G20   29.90S WCI  -3
$$

WIZ017-030-035>037-045-100400-
CENTRAL WISCONSIN

CITY           SKY/WX    TMP DP  RH WIND       PRES   REMARKS
MEDFORD        NOT AVBL
WAUSAU         CLOUDY    11   0  61 NW15      29.94F WCI  -5
MOSINEE        CLOUDY     9   1  72 NW13G18   29.96F WCI  -7
MARSHFIELD     CLOUDY    10  -1  61 N10       29.97S WCI  -4
WISC RAPIDS    CLOUDY    10  -2  58 N16G23    30.01R WCI  -7
STEVENS POINT  NOT AVBL
WAUPACA        NOT AVBL
SHAWANO        NOT AVBL
CLINTONVILLE   NOT AVBL
WAUTOMA        NOT AVBL
$$

WIZ038-039-048-051-100400-
FOX VALLEY

CITY           SKY/WX    TMP DP  RH WIND       PRES   REMARKS
NWS GREEN BAY  FLURRIES  13   6  74 NW9       29.94S WCI   1
APPLETON       MOCLDY    12   1  62 NW20      29.92R WCI  -6
OSHKOSH        CLOUDY    14   3  61 N15       29.94R WCI  -1
FOND DU LAC    PTCLDY    14   3  61 N16       29.94R WCI  -2
$$

WIZ022-050-052-100400-
EAST CENTRAL WISCONSIN

CITY           SKY/WX    TMP DP  RH WIND       PRES   REMARKS
EPHRAIM        NOT AVBL
STURGEON BAY   CLOUDY    12   3  67 NW16G22   29.90F WCI  -4
MANITOWOC      NOT AVBL
SHEBOYGAN      FLURRIES  15   7  70 NW14G22   29.91R WCI   0
$$

LMZ563-521-522-541>543-100400-
LAKESHORE

STATION/POSITION TIME  TEMP    WIND        PRES    VSBY  WAVE
                       AIR SEA DIR/SP/G                  HT/PER
                 (UTC) (F)     (DEG/KT/KT) (MB)    (MI)  (FT/S)
SHEBOYGAN LKSHOR 0200   16     320/ 17/ 20 1014.3R
KEWAUNEE LKSHORE 0200   14     350/ 12/ 22 1012.0R
ALGOMA MARINA    0211          310/ 19/ 25   N/A
CHAMBERS ISLAND  0200   14     300/ 14/ 22 1012.2
MENOMINEE LKSHOR 0200   13     300/ 16     1011.7R
$$




USA.gov is the U.S. government's official web portal to all federal, state and local government web resources and services.